| time (UTC) | temp F | wind direction | speed MPH | gust MPH | rain 1hr in | rain 24hr in | rain mn in | humidity % | barometer mb |
| 20260505200028 | 71 | 345 | 4.0 | 9.0 | 0.00 | 0.00 | 0.00 | 54 | 1016.9 |
| 20260505194530 | 70 | 12 | 5.0 | 10.0 | 0.00 | 0.00 | 0.00 | 54 | 1017.0 |
| 20260505191530 | 70 | 39 | 4.0 | 9.0 | 0.00 | 0.00 | 0.00 | 54 | 1017.2 |
| 20260505190033 | 69 | 3 | 3.0 | 9.0 | 0.00 | 0.00 | 0.00 | 54 | 1017.2 |
| 20260505184530 | 69 | 15 | 4.0 | 10.0 | 0.00 | 0.00 | 0.00 | 55 | 1017.3 |
| 20260505183031 | 68 | 40 | 4.0 | 10.0 | 0.00 | 0.00 | 0.00 | 55 | 1017.3 |
| 20260505181536 | 68 | 16 | 5.0 | 11.0 | 0.00 | 0.00 | 0.00 | 54 | 1017.3 |
| 20260505180108 | 68 | 16 | 4.0 | 10.0 | 0.00 | 0.00 | 0.00 | 54 | 1017.2 |
| 20260505174535 | 67 | 34 | 4.0 | 12.0 | 0.00 | 0.00 | 0.00 | 56 | 1017.2 |
| 20260505173035 | 67 | 355 | 4.0 | 10.0 | 0.00 | 0.00 | 0.00 | 56 | 1017.1 |
| 20260505171536 | 66 | 31 | 3.0 | 8.0 | 0.00 | 0.00 | 0.00 | 58 | 1017.1 |
| 20260505170038 | 64 | 358 | 4.0 | 9.0 | 0.00 | 0.00 | 0.00 | 60 | 1017.1 |
| 20260505164535 | 64 | 8 | 4.0 | 9.0 | 0.00 | 0.00 | 0.00 | 61 | 1017.0 |
| 20260505163143 | 63 | 9 | 4.0 | 9.0 | 0.00 | 0.00 | 0.00 | 63 | 1016.9 |
| 20260505153034 | 60 | 17 | 3.0 | 6.0 | 0.00 | 0.00 | 0.00 | 68 | 1017.0 |
| 20260505151536 | 61 | 302 | 1.0 | 7.0 | 0.00 | 0.00 | 0.00 | 69 | 1016.9 |
| 20260505124643 | 47 | 140 | 3.0 | 6.0 | 0.00 | 0.00 | 0.00 | 91 | 1015.9 |
| 20260505123036 | 47 | 149 | 3.0 | 4.0 | 0.00 | 0.00 | 0.00 | 90 | 1015.9 |
| 20260505121608 | 47 | 147 | 3.0 | 5.0 | 0.00 | 0.00 | 0.00 | 90 | 1015.9 |
| 20260505114534 | 48 | 142 | 3.0 | 5.0 | 0.00 | 0.00 | 0.00 | 89 | 1015.8 |
| 20260505113035 | 48 | 141 | 3.0 | 5.0 | 0.00 | 0.00 | 0.00 | 88 | 1015.8 |
| 20260505111531 | 48 | 149 | 3.0 | 4.0 | 0.00 | 0.00 | 0.00 | 87 | 1015.7 |
| 20260505100044 | 50 | 130 | 3.0 | 6.0 | 0.00 | 0.00 | 0.00 | 84 | 1015.3 |
| 20260505094648 | 51 | 146 | 3.0 | 5.0 | 0.00 | 0.00 | 0.00 | 82 | 1015.3 |
| 20260505093036 | 52 | 126 | 2.0 | 6.0 | 0.00 | 0.00 | 0.00 | 81 | 1015.3 |
| 20260505084531 | 52 | 138 | 3.0 | 6.0 | 0.00 | 0.00 | 0.00 | 80 | 1015.0 |
| 20260505083119 | 52 | 137 | 3.0 | 6.0 | 0.00 | 0.00 | 0.00 | 79 | 1015.1 |
| 20260505081530 | 53 | 142 | 3.0 | 6.0 | 0.00 | 0.00 | 0.00 | 79 | 1015.1 |
| 20260505080036 | 53 | 135 | 3.0 | 5.0 | 0.00 | 0.00 | 0.00 | 79 | 1015.1 |
| 20260505074535 | 54 | 156 | 3.0 | 6.0 | 0.00 | 0.00 | 0.00 | 80 | 1015.1 |
| 20260505073031 | 54 | 140 | 3.0 | 5.0 | 0.00 | 0.00 | 0.00 | 81 | 1015.0 |
| 20260505071642 | 55 | 149 | 2.0 | 6.0 | 0.00 | 0.00 | 0.00 | 79 | 1014.9 |
| 20260505070031 | 56 | 170 | 2.0 | 5.0 | 0.00 | 0.00 | 0.00 | 79 | 1014.9 |
| 20260505064529 | 57 | 238 | 0.0 | 4.0 | 0.00 | 0.00 | 0.00 | 79 | 1014.9 |
| 20260505063029 | 56 | 131 | 0.0 | 4.0 | 0.00 | 0.00 | 0.00 | 78 | 1014.9 |
| 20260505061608 | 57 | 289 | 0.0 | 4.0 | 0.00 | 0.00 | 0.00 | 76 | 1014.9 |
| 20260505060029 | 56 | 222 | 2.0 | 5.0 | 0.00 | 0.00 | 0.00 | 77 | 1015.0 |
| 20260505051539 | 56 | 94 | 2.0 | 5.0 | 0.00 | 0.00 | 0.00 | 69 | 1014.8 |
| 20260505034534 | 63 | 208 | 4.0 | 9.0 | 0.00 | 0.00 | 0.00 | 52 | 1013.9 |
| 20260505031530 | 65 | 238 | 1.0 | 6.0 | 0.00 | 0.00 | 0.00 | 51 | 1013.5 |
| 20260505030038 | 67 | 238 | 0.0 | 7.0 | 0.00 | 0.00 | 0.00 | 46 | 1013.4 |
| 20260505024529 | 69 | 208 | 1.0 | 7.0 | 0.00 | 0.00 | 0.00 | 44 | 1013.2 |
| 20260505023030 | 70 | 252 | 3.0 | 9.0 | 0.00 | 0.00 | 0.00 | 41 | 1013.2 |
| 20260505021533 | 73 | 277 | 4.0 | 9.0 | 0.00 | 0.00 | 0.00 | 38 | 1013.1 |
| 20260505014642 | 75 | 272 | 4.0 | 10.0 | 0.00 | 0.00 | 0.00 | 36 | 1013.0 |
| 20260505011533 | 75 | 239 | 5.0 | 14.0 | 0.00 | 0.00 | 0.00 | 33 | 1013.1 |
| 20260505010035 | 76 | 241 | 6.0 | 15.0 | 0.00 | 0.00 | 0.00 | 33 | 1013.1 |
| 20260505004607 | 77 | 245 | 6.0 | 15.0 | 0.00 | 0.00 | 0.00 | 32 | 1013.1 |
| 20260505003032 | 77 | 247 | 5.0 | 15.0 | 0.00 | 0.00 | 0.00 | 32 | 1013.0 |
| 20260505001536 | 78 | 242 | 7.0 | 15.0 | 0.00 | 0.00 | 0.00 | 32 | 1012.9 |
| 20260504234648 | 79 | 247 | 6.0 | 14.0 | 0.00 | 0.00 | 0.00 | 31 | 1012.8 |
| 20260504233034 | 80 | 240 | 6.0 | 15.0 | 0.00 | 0.00 | 0.00 | 32 | 1012.8 |
| 20260504231531 | 80 | 238 | 6.0 | 17.0 | 0.00 | 0.00 | 0.00 | 33 | 1012.9 |
| 20260504230036 | 80 | 255 | 6.0 | 14.0 | 0.00 | 0.00 | 0.00 | 32 | 1013.0 |
| 20260504224605 | 80 | 267 | 6.0 | 17.0 | 0.00 | 0.00 | 0.00 | 32 | 1013.0 |
| 20260504223032 | 80 | 268 | 7.0 | 15.0 | 0.00 | 0.00 | 0.00 | 31 | 1013.1 |
| 20260504221537 | 80 | 263 | 7.0 | 15.0 | 0.00 | 0.00 | 0.00 | 30 | 1013.1 |
| 20260504220031 | 80 | 247 | 6.0 | 13.0 | 0.00 | 0.00 | 0.00 | 31 | 1013.1 |
| 20260504214535 | 81 | 237 | 7.0 | 15.0 | 0.00 | 0.00 | 0.00 | 31 | 1013.2 |
| 20260504211608 | 80 | 256 | 6.0 | 15.0 | 0.00 | 0.00 | 0.00 | 31 | 1013.3 |
| 20260504210030 | 80 | 256 | 6.0 | 16.0 | 0.00 | 0.00 | 0.00 | 32 | 1013.3 |
| 20260504203031 | 80 | 277 | 6.0 | 14.0 | 0.00 | 0.00 | 0.00 | 34 | 1013.5 |
| 20260504201535 | 79 | 305 | 5.0 | 10.0 | 0.00 | 0.00 | 0.00 | 38 | 1013.6 |